{"data":{"norad_id":50465,"intl_designator":"2021-131A","name":"ZY-1 02E","alt_names":[],"object_type":"PAYLOAD","status":"ACTIVE","operator":null,"country":"PRC","launch_date":"2021-12-26","launch_site_code":"TAISC","launch_vehicle":null,"mission":null,"orbit_class":"UNKNOWN","rcs_meters":null,"size_class":null,"mass_kg":null,"dimensions":null,"purposes":[],"wikipedia_slug":null,"has_3d_model":false,"image_url":null,"decayed_at":null,"tle_current":{"epoch":"2026-09-20T05:29:02.961600Z","epoch_age_seconds":45353,"freshness":"FRESH","line1":"1 50465U 21131A   26263.22850650  .00000039  00000+0  28383-4 0  9994","line2":"2 50465  98.4362 338.2650 0001560 131.4157 228.7163 14.35397206248053","mean_motion":14.35397206,"eccentricity":0.000156,"inclination_deg":98.4362,"raan_deg":338.265,"arg_perigee_deg":131.4157,"mean_anomaly_deg":228.7163,"bstar":2.8383e-5,"rev_number":24805,"period_min":100.32066343593,"perigee_km":772.63100680619,"apogee_km":774.8623945208,"semimajor_km":7151.8837006635,"source":"CELESTRAK","updated_at":"2026-09-20T09:00:15.496657Z"}}}